[[{"header":{"parameterUnit":"m.s-1","parameterCategory":1,"la1":30.2991,"la2":30.254,"lo1":-89.0895,"lo2":-89.0444,"dy":0.0017,"dx":0.0017,"nx":28,"ny":28,"refTime":"2023-09-27T09:00:00:Z","depth":0,"parameterNumber":2,"parameterNumberName":"U-component_of_WINDS"},"data":[0,0,0,0,0,0,0,0,0,0,0,0,0,0,0,0,0,0,0,0,0,0,0,0,0,0,0,0,0,0,0,0,0,0,0,0,0,0,0,0,0,0,0,0,0,0,0,0,0,0,0,0,0,0,0,0,0,0,-3.0314,-3.0315,0,-3.0378,-3.0378,-3.0379,-3.0364,-3.0363,-3.0362,-3.036,-3.0431,-3.0434,-3.0437,0,0,0,0,0,0,0,0,0,0,0,0,0,-3.0186,-3.0188,-3.0314,-3.0315,-3.0315,-3.0377,-3.0378,-3.0379,-3.0364,-3.0363,-3.0361,-3.036,-3.043,-3.0434,-3.0437,0,0,0,0,0,0,0,0,0,0,0,0,0,-3.0245,-3.0189,-3.0314,-3.0315,-3.0316,-3.0377,-3.0378,-3.0379,-3.0365,-3.0363,-3.0361,-3.0359,-3.0429,-3.0433,-3.0438,-3.0503,0,0,-3.0452,-3.0454,0,0,0,0,0,0,0,0,-3.0242,-3.025,-3.0314,-3.0315,-3.0316,-3.0361,-3.0359,-3.0421,-3.0365,-3.0346,-3.036,-3.0358,-3.041,-3.0416,-3.0432,-3.0506,-3.0509,-3.0452,-3.0455,-3.0457,-3.0458,0,0,0,0,0,0,0,-3.0237,-3.0247,-3.0339,-3.0315,-3.0317,-3.0315,-3.0321,-3.0371,-3.0388,-3.0348,-3.0347,-3.0354,-3.041,-3.0427,-3.0433,-3.051,-3.0452,-3.0456,-3.0459,-3.0461,-3.0645,-3.0647,0,0,0,0,0,0,-3.0232,-3.0243,-3.0337,-3.0341,-3.0273,-3.0319,-3.0326,-3.0349,-3.0387,-3.0391,-3.0356,-3.0353,-3.0421,-3.0428,-3.0436,-3.0517,-3.0457,-3.0461,-3.0464,-3.0643,-3.0646,-3.0648,0,0,0,0,0,0,-3.0229,-3.024,-3.0335,-3.0292,-3.0304,-3.0323,-3.0349,-3.0351,-3.0368,-3.0393,-3.0397,-3.037,-3.0419,-3.0429,-3.0487,-3.0519,-3.0463,-3.0467,-3.064,-3.0644,-3.0647,-3.0678,0,0,0,0,0,0,-3.0225,-3.0239,-3.0262,-3.0293,-3.0306,-3.0382,-3.035,-3.0353,-3.0375,-3.0373,-3.0408,-3.0412,-3.0419,-3.048,-3.0491,-3.0524,-3.0471,-3.0638,-3.0642,-3.0646,-3.0674,-3.0681,-3.0688,0,0,0,0,0,-3.0221,-3.0269,-3.0264,-3.0275,-3.0335,-3.0384,-3.0392,-3.0398,-3.0378,-3.0403,-3.0419,-3.0411,-3.0513,-3.0486,-3.0498,-3.0533,-3.0636,-3.0641,-3.0645,-3.0671,-3.068,-3.0688,0,0,0,0,0,0,-3.0243,-3.0273,-3.0267,-3.0326,-3.0353,-3.0381,-3.0413,-3.0407,-3.0441,-3.0437,-3.0445,-3.0453,-3.0512,-3.0528,-3.0497,-3.06,-3.0572,-3.058,-3.0587,-3.0596,-3.0603,-3.0598,-3.0475,0,0,0,0,0,-3.0255,-3.029,-3.0315,-3.0365,-3.0378,-3.0393,-3.0415,-3.0417,-3.0445,-3.0457,-3.0477,-3.0507,-3.0546,-3.0572,-3.0609,-3.0676,-3.0685,-3.0707,-3.0714,-3.0719,-3.0726,-3.0766,-3.0777,-3.0664,-3.0664,-3.0664,0,0,-3.0279,-3.03,-3.0322,-3.037,-3.039,-3.0429,-3.0403,-3.0444,-3.0474,-3.0464,-3.0519,-3.0536,-3.0569,-3.0632,-3.0661,-3.0648,-3.076,-3.0726,-3.073,-3.0734,-3.0772,-3.0783,-3.0793,-3.0667,-3.0667,-3.0666,0,0,-3.0344,-3.0362,-3.0407,-3.0429,-3.046,-3.047,-3.0481,-3.0511,-3.0521,-3.0577,-3.0571,-3.0608,-3.0674,-3.0699,-3.0721,-3.0798,-3.0793,-3.081,-3.0848,-3.0887,-3.0896,-3.0904,-3.0934,-3.0944,-3.0817,-3.0817,-3.0817,0,-3.0372,-3.0428,-3.0431,-3.0474,-3.0496,-3.0488,-3.0535,-3.0556,-3.0599,-3.0616,-3.06,-3.0685,-3.0707,-3.0777,-3.0797,-3.0813,-3.0829,-3.0807,-3.0894,-3.0902,-3.0909,-3.0938,-3.0949,-3.0819,-3.0819,-3.0819,-3.0818,0,-3.0461,-3.05,-3.0533,-3.0573,-3.06,-3.0644,-3.0657,-3.0683,-3.0684,-3.0697,-3.0755,-3.0782,-3.0825,-3.0842,-3.0843,-3.0914,-3.0905,-3.0891,-3.0864,-3.0922,-3.095,-3.096,-3.0822,-3.0821,-3.0821,-3.082,0,0,-3.0541,-3.0584,-3.0596,-3.0615,-3.0651,-3.0682,-3.0728,-3.0769,-3.0793,-3.0824,-3.0865,-3.0922,-3.0911,-3.0935,-3.094,-3.0973,-3.1037,-3.0956,-3.0957,-3.0972,-3.1119,-3.113,-3.1143,-3.1033,-3.1035,-3.1036,-3.1117,0,-3.061,-3.0689,-3.0694,-3.0766,-3.0804,-3.0798,-3.0839,-3.0866,-3.088,-3.0916,-3.0932,-3.0974,-3.0954,-3.0969,-3.1002,-3.1022,-3.1067,-3.1016,-3.1073,-3.1075,-3.1066,-3.1157,-3.1168,-3.1243,-3.1128,-3.113,-3.1131,0,-3.0701,-3.0734,-3.0809,-3.0842,-3.0858,-3.0894,-3.0934,-3.0968,-3.1,-3.1008,-3.1037,-3.1037,-3.1087,-3.1057,-3.1129,-3.1094,-3.1118,-3.1132,-3.1135,-3.1142,-3.1107,-3.1168,-3.1266,-3.1279,-3.1147,-3.1146,-3.1145,0,-3.0755,-3.0818,-3.0871,-3.0888,-3.0926,-3.0952,-3.097,-3.1,-3.1026,-3.1062,-3.1079,-3.1121,-3.1144,-3.1178,-3.1191,-3.1168,-3.1263,-3.1233,-3.1274,-3.1274,-3.1295,-3.1294,-3.1401,-3.1308,-3.1308,-3.1307,-3.1307,0,-3.0832,-3.0879,-3.0896,-3.0929,-3.0983,-3.099,-3.1044,-3.1061,-3.1088,-3.1127,-3.1125,-3.1162,-3.1176,-3.1216,-3.1227,-3.1286,-3.1296,-3.1306,-3.1309,-3.1307,-3.1306,-3.1324,-3.132,-3.131,-3.131,-3.1309,-3.1309,0,-3.0901,-3.0914,-3.0972,-3.1004,-3.1013,-3.1052,-3.108,-3.1114,-3.1128,-3.1177,-3.1189,-3.1212,-3.1259,-3.1275,-3.1333,-3.1341,-3.141,-3.1408,-3.1399,-3.14,-3.144,-3.1437,-3.1564,-3.1582,-3.1475,-3.1476,-3.1477,0,-3.095,-3.0986,-3.1022,-3.1047,-3.1065,-3.1105,-3.1132,-3.1141,-3.1169,-3.1211,-3.124,-3.1287,-3.1325,-3.1402,-3.1425,-3.147,-3.147,-3.1511,-3.1477,-3.1475,-3.1473,-3.1472,-3.1477,-3.1518,-3.1519,-3.152,-3.1521,0,-3.1037,-3.1042,-3.1079,-3.1119,-3.115,-3.1182,-3.1213,-3.1234,-3.1249,-3.1281,-3.1329,-3.1358,-3.1418,-3.1466,-3.1512,-3.1533,-3.1531,-3.1531,-3.1544,-3.1543,-3.1537,-3.1543,-3.1418,-3.1529,-3.1528,-3.1527,-3.1527,-3.1527,-3.1099,-3.1132,-3.1162,-3.1204,-3.1229,-3.1259,-3.1293,-3.1311,-3.135,-3.1398,-3.1402,-3.1455,-3.149,-3.1552,-3.1576,-3.1619,-3.1608,-3.1625,-3.1629,-3.1634,-3.1638,-3.1529,-3.1627,-3.1627,-3.1627,-3.1627,-3.1627,0,-3.1188,-3.1207,-3.1246,-3.1289,-3.1323,-3.1316,-3.1351,-3.1381,-3.1426,-3.1458,-3.1496,-3.1553,-3.16,-3.1627,-3.1675,-3.1705,-3.1705,-3.1717,-3.1716,-3.1722,-3.1644,-3.163,-3.1716,-3.1716,-3.1716,-3.1716,-3.1716,-3.1716,-3.1238,-3.1293,-3.1302,-3.1372,-3.1392,-3.1442,-3.1463,-3.1492,-3.1518,-3.158,-3.1619,-3.1636,-3.1668,-3.1718,-3.1762,-3.1769,-3.1788,-3.1802,-3.1808,-3.1736,-3.1727,-3.1718,-3.1704,-3.1805,-3.1805,-3.1883,-3.1883,-3.1884]},{"header":{"parameterUnit":"m.s-1","parameterCategory":1,"la1":30.2991,"la2":30.254,"lo1":-89.0895,"lo2":-89.0444,"dy":0.0017,"dx":0.0017,"nx":28,"ny":28,"refTime":"2023-09-27T09:00:00:Z","depth":0,"parameterNumber":3,"parameterNumberName":"V-component_of_WINDS"},"data":[0,0,0,0,0,0,0,0,0,0,0,0,0,0,0,0,0,0,0,0,0,0,0,0,0,0,0,0,0,0,0,0,0,0,0,0,0,0,0,0,0,0,0,0,0,0,0,0,0,0,0,0,0,0,0,0,0,0,-2.6932,-2.6932,0,-2.6951,-2.6951,-2.6951,-2.6933,-2.6932,-2.6932,-2.6931,-2.6949,-2.695,-2.6952,0,0,0,0,0,0,0,0,0,0,0,0,0,-2.6881,-2.6882,-2.6932,-2.6932,-2.6933,-2.6951,-2.6951,-2.6951,-2.6933,-2.6932,-2.6931,-2.6931,-2.6949,-2.695,-2.6952,0,0,0,0,0,0,0,0,0,0,0,0,0,-2.6902,-2.6883,-2.6932,-2.6926,-2.6925,-2.6951,-2.6951,-2.6951,-2.6933,-2.6932,-2.6931,-2.693,-2.6949,-2.695,-2.6952,-2.6984,0,0,-2.6957,-2.6958,0,0,0,0,0,0,0,0,-2.6901,-2.6904,-2.6927,-2.6926,-2.6926,-2.6938,-2.694,-2.6962,-2.6934,-2.693,-2.6931,-2.693,-2.6947,-2.6948,-2.6954,-2.6985,-2.6986,-2.6957,-2.6958,-2.6959,-2.696,0,0,0,0,0,0,0,-2.6899,-2.6903,-2.6939,-2.6927,-2.6927,-2.6922,-2.6924,-2.6944,-2.6944,-2.6931,-2.6929,-2.6932,-2.6946,-2.6953,-2.6954,-2.6986,-2.6957,-2.6959,-2.696,-2.6961,-2.7047,-2.7048,0,0,0,0,0,0,-2.6899,-2.6902,-2.6939,-2.694,-2.691,-2.6924,-2.6926,-2.6936,-2.6944,-2.6944,-2.6933,-2.6931,-2.695,-2.6952,-2.6955,-2.6996,-2.6959,-2.6961,-2.6962,-2.7045,-2.7047,-2.7048,0,0,0,0,0,0,-2.6898,-2.6902,-2.6938,-2.6921,-2.6925,-2.6926,-2.6937,-2.6936,-2.6943,-2.6946,-2.6945,-2.6939,-2.6949,-2.6953,-2.6978,-2.6996,-2.6962,-2.6963,-2.7044,-2.7046,-2.7047,-2.7076,0,0,0,0,0,0,-2.6896,-2.6902,-2.6914,-2.6921,-2.6926,-2.696,-2.6938,-2.6938,-2.6946,-2.6944,-2.6952,-2.6952,-2.6949,-2.6975,-2.6979,-2.6998,-2.6964,-2.7042,-2.7045,-2.7047,-2.7073,-2.7078,-2.7083,0,0,0,0,0,-2.6894,-2.692,-2.6915,-2.6919,-2.6941,-2.6961,-2.6964,-2.696,-2.6947,-2.696,-2.6962,-2.6952,-2.6993,-2.6978,-2.6982,-2.7002,-2.7041,-2.7044,-2.7047,-2.7071,-2.7077,-2.7082,0,0,0,0,0,0,-2.6915,-2.6921,-2.6915,-2.6944,-2.6952,-2.6958,-2.6974,-2.6967,-2.6979,-2.6976,-2.697,-2.6972,-2.6999,-2.7002,-2.6986,-2.7034,-2.7015,-2.7019,-2.7032,-2.7038,-2.7042,-2.7042,-2.6966,0,0,0,0,0,-2.6923,-2.6939,-2.6943,-2.6969,-2.6973,-2.6973,-2.6982,-2.6978,-2.6986,-2.699,-2.6993,-2.7002,-2.7017,-2.7027,-2.7041,-2.7073,-2.7075,-2.7088,-2.7093,-2.7097,-2.7101,-2.7121,-2.7127,-2.7057,-2.7057,-2.7057,0,0,-2.6939,-2.6945,-2.6955,-2.6973,-2.6979,-2.6997,-2.6976,-2.6995,-2.7008,-2.6992,-2.7017,-2.702,-2.7029,-2.7059,-2.7072,-2.7062,-2.712,-2.71,-2.7103,-2.7105,-2.7124,-2.7131,-2.7137,-2.7059,-2.7059,-2.7059,0,0,-2.6979,-2.6984,-2.7007,-2.7014,-2.7024,-2.7023,-2.7029,-2.7036,-2.7038,-2.7062,-2.7052,-2.7067,-2.7092,-2.71,-2.7108,-2.7151,-2.7143,-2.7156,-2.7181,-2.7201,-2.7206,-2.7211,-2.7229,-2.7236,-2.7159,-2.7159,-2.7159,0,-2.6999,-2.7025,-2.7019,-2.704,-2.7049,-2.7036,-2.706,-2.7066,-2.708,-2.7086,-2.7075,-2.7108,-2.7113,-2.7146,-2.7156,-2.7162,-2.7169,-2.7156,-2.7206,-2.7211,-2.7215,-2.7233,-2.7239,-2.7161,-2.7161,-2.7161,-2.716,0,-2.705,-2.7068,-2.7085,-2.71,-2.711,-2.7132,-2.7131,-2.7142,-2.7137,-2.7138,-2.7164,-2.717,-2.7186,-2.7192,-2.7187,-2.7225,-2.7219,-2.7207,-2.7188,-2.7224,-2.724,-2.7247,-2.7163,-2.7163,-2.7162,-2.7162,0,0,-2.7104,-2.7116,-2.7123,-2.7131,-2.7141,-2.7155,-2.7176,-2.7192,-2.7203,-2.7213,-2.7232,-2.7254,-2.7244,-2.7252,-2.7247,-2.7264,-2.7302,-2.725,-2.725,-2.7262,-2.7346,-2.7358,-2.7365,-2.7295,-2.7297,-2.7297,-2.7346,0,-2.7146,-2.7185,-2.7181,-2.7218,-2.7236,-2.7224,-2.7243,-2.7252,-2.7253,-2.7269,-2.727,-2.7287,-2.727,-2.7276,-2.7291,-2.7294,-2.7319,-2.729,-2.7315,-2.7316,-2.7316,-2.7373,-2.7385,-2.7431,-2.7352,-2.7354,-2.7354,0,-2.7201,-2.7215,-2.7254,-2.7263,-2.7271,-2.7288,-2.7303,-2.7318,-2.7327,-2.7328,-2.7337,-2.7331,-2.7353,-2.7332,-2.7364,-2.7344,-2.7354,-2.7356,-2.7358,-2.7363,-2.7339,-2.7382,-2.7445,-2.7453,-2.7364,-2.7363,-2.7362,0,-2.7241,-2.7268,-2.7296,-2.7302,-2.7313,-2.7326,-2.7331,-2.7339,-2.735,-2.7363,-2.737,-2.7385,-2.7394,-2.7406,-2.7404,-2.7388,-2.7438,-2.7415,-2.744,-2.744,-2.7453,-2.7453,-2.7522,-2.7454,-2.7454,-2.7454,-2.7454,0,-2.7291,-2.7316,-2.7314,-2.7332,-2.736,-2.7355,-2.7383,-2.7386,-2.7394,-2.7412,-2.7401,-2.7419,-2.7413,-2.743,-2.7428,-2.7457,-2.746,-2.7462,-2.7462,-2.7465,-2.7465,-2.7473,-2.7471,-2.7456,-2.7456,-2.7455,-2.7455,0,-2.7341,-2.734,-2.737,-2.7378,-2.7381,-2.7402,-2.7409,-2.7426,-2.7426,-2.7449,-2.7454,-2.7456,-2.7475,-2.7474,-2.7495,-2.7494,-2.753,-2.7524,-2.7528,-2.7528,-2.7554,-2.7552,-2.7633,-2.7644,-2.7566,-2.7567,-2.7567,0,-2.7374,-2.7394,-2.7404,-2.7416,-2.7423,-2.7441,-2.7452,-2.7448,-2.746,-2.7473,-2.7489,-2.7508,-2.7523,-2.7555,-2.7558,-2.7575,-2.7572,-2.7598,-2.7574,-2.7578,-2.7576,-2.7576,-2.7579,-2.7604,-2.7605,-2.7606,-2.7606,0,-2.7435,-2.7434,-2.745,-2.7468,-2.7482,-2.7495,-2.7506,-2.7516,-2.7513,-2.7527,-2.7548,-2.756,-2.7583,-2.7603,-2.7619,-2.7624,-2.7616,-2.7614,-2.7621,-2.7626,-2.7628,-2.7631,-2.7544,-2.7613,-2.7612,-2.7611,-2.7611,-2.7611,-2.7479,-2.7497,-2.7508,-2.7528,-2.7536,-2.7548,-2.7565,-2.7568,-2.7585,-2.7605,-2.76,-2.7624,-2.7634,-2.7656,-2.7663,-2.7682,-2.7672,-2.7682,-2.7685,-2.7688,-2.7693,-2.7623,-2.7684,-2.7684,-2.7684,-2.7683,-2.7683,0,-2.7542,-2.7549,-2.7567,-2.7584,-2.76,-2.759,-2.7603,-2.7617,-2.7638,-2.7648,-2.7664,-2.7689,-2.7708,-2.7712,-2.7731,-2.7746,-2.7742,-2.7751,-2.7752,-2.7754,-2.7698,-2.7692,-2.7754,-2.7754,-2.7753,-2.7753,-2.7753,-2.7753,-2.7577,-2.7607,-2.7608,-2.7643,-2.7649,-2.7673,-2.7682,-2.7693,-2.7701,-2.773,-2.7746,-2.7749,-2.7757,-2.7777,-2.7794,-2.7795,-2.7804,-2.7815,-2.7814,-2.7764,-2.7757,-2.775,-2.7744,-2.7816,-2.7816,-2.7868,-2.7869,-2.7869]}]]